Location: Koslow
(50.3020°N, 18.5663°E)
Time: 21:36:30
(UTC+00:00)

Cosmos 1709 Rocket - Pass Details

Date: 07 June 2020
Orbit: 949 x 1001 km, 82.9° (Epoch: 04 July)

Event Time Altitude Azimuth Distance (km) Brightness Sun altitude
Exits shadow 00:05:04 21° 211° (SSW) 2,021 5.1 -14.8°
Maximum altitude 00:09:13 58° 284° (WNW) 1,117 4.3 -14.6°
Drops below altitude 10° 00:15:21 10° 4° (N) 2,721 7.6 -14.2°
Sets 00:17:57 0° 8° (N) 3,679 8.7 -14.1°
